Time,TemperatureF,DewpointF,PressureIn,WindDirection,WindDirectionDegrees,WindSpeedMPH,WindSpeedGustMPH,Humidity,HourlyPrecipIn,Conditions,Clouds,dailyrainin,SoftwareType,DateUTC
2013-11-30 00:00:00,25.8,18.4,30.45,SE,126,3.0,11.0,73,0.00,,---,0.13,VWS V14.01,2013-11-30 05:00:00,
2013-11-30 00:01:00,25.8,18.4,30.45,SE,137,2.0,11.0,73,0.00,,---,0.13,VWS V14.01,2013-11-30 05:01:00,
2013-11-30 00:02:00,25.8,18.4,30.45,South,172,2.0,4.0,73,0.00,,---,0.00,VWS V14.01,2013-11-30 05:02:00,
2013-11-30 00:03:00,25.8,18.4,30.45,South,174,0.0,4.0,73,0.00,,---,0.00,VWS V14.01,2013-11-30 05:03:00,
2013-11-30 00:08:00,25.8,18.4,30.45,SE,141,4.0,8.0,73,0.00,,---,0.00,VWS V14.01,2013-11-30 05:08:00,
2013-11-30 00:13:00,25.8,18.4,30.45,ESE,114,2.0,8.0,73,0.00,,---,0.00,VWS V14.01,2013-11-30 05:13:00,
2013-11-30 00:18:00,25.8,18.4,30.44,East,82,2.0,8.0,73,0.00,,---,0.00,VWS V14.01,2013-11-30 05:18:00,
2013-11-30 00:23:00,25.6,18.2,30.44,SE,128,0.0,8.0,73,0.00,,---,0.00,VWS V14.01,2013-11-30 05:23:00,
2013-11-30 00:28:00,25.6,18.2,30.44,ESE,107,1.0,8.0,73,0.00,,---,0.00,VWS V14.01,2013-11-30 05:28:00,
2013-11-30 00:30:00,25.6,18.2,30.43,SSE,164,2.0,8.0,73,0.00,,---,0.00,VWS V14.01,2013-11-30 05:30:00,
2013-11-30 00:33:00,25.6,18.2,30.43,SE,136,2.0,5.0,73,0.00,,---,0.00,VWS V14.01,2013-11-30 05:33:00,
2013-11-30 00:38:00,25.6,18.2,30.43,ESE,109,3.0,7.0,73,0.00,,---,0.00,VWS V14.01,2013-11-30 05:38:00,
2013-11-30 00:43:00,25.4,18.0,30.43,ESE,117,2.0,7.0,73,0.00,,---,0.00,VWS V14.01,2013-11-30 05:43:00,
2013-11-30 00:48:00,25.4,18.0,30.43,ESE,102,0.0,7.0,73,0.00,,---,0.00,VWS V14.01,2013-11-30 05:48:00,
2013-11-30 00:53:00,25.3,18.2,30.43,SSE,157,2.0,7.0,74,0.00,,---,0.00,VWS V14.01,2013-11-30 05:53:00,
2013-11-30 00:58:00,25.1,18.0,30.43,SE,144,1.0,7.0,74,0.00,,---,0.00,VWS V14.01,2013-11-30 05:58:00,
2013-11-30 01:00:00,25.1,18.0,30.42,ESE,106,2.0,7.0,74,0.00,,---,0.00,VWS V14.01,2013-11-30 06:00:00,
2013-11-30 01:03:00,25.1,18.0,30.42,SE,126,1.0,6.0,74,0.00,,---,0.00,VWS V14.01,2013-11-30 06:03:00,
2013-11-30 01:08:00,25.1,18.3,30.42,ENE,71,0.0,6.0,75,0.00,,---,0.00,VWS V14.01,2013-11-30 06:08:00,
2013-11-30 01:13:00,25.3,18.5,30.42,ESE,116,0.0,6.0,75,0.00,,---,0.00,VWS V14.01,2013-11-30 06:13:00,
2013-11-30 01:18:00,25.3,18.2,30.41,ESE,112,5.0,6.0,74,0.00,,---,0.00,VWS V14.01,2013-11-30 06:18:00,
2013-11-30 01:23:00,25.4,18.3,30.41,SSE,150,0.0,6.0,74,0.00,,---,0.00,VWS V14.01,2013-11-30 06:23:00,
2013-11-30 01:28:00,25.4,18.3,30.41,SE,126,1.0,6.0,74,0.00,,---,0.00,VWS V14.01,2013-11-30 06:28:00,
2013-11-30 01:30:00,25.4,18.3,30.41,ESE,110,6.0,6.0,74,0.00,,---,0.00,VWS V14.01,2013-11-30 06:30:00,
2013-11-30 01:33:00,25.4,18.3,30.41,ESE,114,2.0,7.0,74,0.00,,---,0.00,VWS V14.01,2013-11-30 06:33:00,
2013-11-30 01:38:00,25.6,18.5,30.41,South,182,0.0,7.0,74,0.00,,---,0.00,VWS V14.01,2013-11-30 06:38:00,
2013-11-30 01:43:00,25.4,18.3,30.41,SE,141,0.0,7.0,74,0.00,,---,0.00,VWS V14.01,2013-11-30 06:43:00,
2013-11-30 01:48:00,25.6,18.5,30.40,East,95,3.0,7.0,74,0.00,,---,0.00,VWS V14.01,2013-11-30 06:48:00,
2013-11-30 01:53:00,25.6,18.5,30.40,ESE,121,1.0,7.0,74,0.00,,---,0.00,VWS V14.01,2013-11-30 06:53:00,
2013-11-30 01:58:00,25.6,18.5,30.40,SE,133,4.0,7.0,74,0.00,,---,0.00,VWS V14.01,2013-11-30 06:58:00,
2013-11-30 02:00:00,25.6,18.5,30.39,West,261,2.0,7.0,74,0.00,,---,0.00,VWS V14.01,2013-11-30 07:00:00,
2013-11-30 02:03:00,25.6,18.5,30.39,East,95,3.0,7.0,74,0.00,,---,0.00,VWS V14.01,2013-11-30 07:03:00,
2013-11-30 02:08:00,25.7,18.6,30.39,South,175,4.0,7.0,74,0.00,,---,0.00,VWS V14.01,2013-11-30 07:08:00,
2013-11-30 02:13:00,25.7,18.6,30.39,SSE,164,1.0,7.0,74,0.00,,---,0.00,VWS V14.01,2013-11-30 07:13:00,
2013-11-30 02:18:00,25.7,18.3,30.39,ESE,112,1.0,7.0,73,0.00,,---,0.00,VWS V14.01,2013-11-30 07:18:00,
2013-11-30 02:23:00,25.8,18.4,30.39,ESE,114,2.0,7.0,73,0.00,,---,0.00,VWS V14.01,2013-11-30 07:23:00,
2013-11-30 02:28:00,25.7,18.3,30.39,SE,144,1.0,7.0,73,0.00,,---,0.00,VWS V14.01,2013-11-30 07:28:00,
2013-11-30 02:30:00,25.7,18.3,30.39,SE,143,3.0,7.0,73,0.00,,---,0.00,VWS V14.01,2013-11-30 07:30:00,
2013-11-30 02:33:00,25.7,18.6,30.39,ESE,114,5.0,5.0,74,0.00,,---,0.00,VWS V14.01,2013-11-30 07:33:00,
2013-11-30 02:38:00,25.8,18.4,30.39,East,99,1.0,6.0,73,0.00,,---,0.00,VWS V14.01,2013-11-30 07:38:00,
2013-11-30 02:43:00,26.0,18.5,30.39,ESE,102,2.0,7.0,73,0.00,,---,0.00,VWS V14.01,2013-11-30 07:43:00,
2013-11-30 02:48:00,26.1,18.6,30.38,East,96,3.0,7.0,73,0.00,,---,0.00,VWS V14.01,2013-11-30 07:48:00,
2013-11-30 02:53:00,26.3,18.5,30.38,ESE,116,0.0,7.0,72,0.00,,---,0.00,VWS V14.01,2013-11-30 07:53:00,
2013-11-30 02:58:00,26.4,18.6,30.38,East,99,4.0,7.0,72,0.00,,---,0.00,VWS V14.01,2013-11-30 07:58:00,
2013-11-30 03:00:00,26.4,18.6,30.39,ESE,113,0.0,7.0,72,0.00,,---,0.00,VWS V14.01,2013-11-30 08:00:00,
2013-11-30 03:03:00,26.4,18.6,30.39,East,88,2.0,3.0,72,0.00,,---,0.00,VWS V14.01,2013-11-30 08:03:00,
2013-11-30 03:08:00,26.7,18.9,30.39,SSE,160,5.0,7.0,72,0.00,,---,0.00,VWS V14.01,2013-11-30 08:08:00,
2013-11-30 03:13:00,27.0,19.2,30.39,ESE,102,5.0,7.0,72,0.00,,---,0.00,VWS V14.01,2013-11-30 08:13:00,
2013-11-30 03:18:00,27.0,19.2,30.37,SE,137,7.0,13.0,72,0.00,,---,0.00,VWS V14.01,2013-11-30 08:18:00,
2013-11-30 03:23:00,27.0,18.9,30.37,SSE,165,6.0,13.0,71,0.00,,---,0.00,VWS V14.01,2013-11-30 08:23:00,
2013-11-30 03:29:00,27.2,18.7,30.37,SE,130,2.0,13.0,70,0.00,,---,0.00,VWS V14.01,2013-11-30 08:29:00,
2013-11-30 03:30:00,27.2,19.1,30.37,East,96,2.0,13.0,71,0.00,,---,0.00,VWS V14.01,2013-11-30 08:30:00,
2013-11-30 03:34:00,27.2,19.1,30.37,ESE,110,2.0,10.0,71,0.00,,---,0.00,VWS V14.01,2013-11-30 08:34:00,
2013-11-30 03:39:00,27.2,19.1,30.37,SE,136,1.0,10.0,71,0.00,,---,0.00,VWS V14.01,2013-11-30 08:39:00,
2013-11-30 03:44:00,27.0,18.9,30.37,South,178,3.0,12.0,71,0.00,,---,0.00,VWS V14.01,2013-11-30 08:44:00,
2013-11-30 03:49:00,27.0,18.9,30.35,South,172,5.0,12.0,71,0.00,,---,0.00,VWS V14.01,2013-11-30 08:49:00,
2013-11-30 03:54:00,27.0,18.9,30.35,SE,127,3.0,12.0,71,0.00,,---,0.00,VWS V14.01,2013-11-30 08:54:00,
2013-11-30 03:59:00,27.0,18.9,30.35,SSE,164,2.0,12.0,71,0.00,,---,0.00,VWS V14.01,2013-11-30 08:59:00,
2013-11-30 04:00:00,27.0,18.9,30.34,ENE,68,3.0,12.0,71,0.00,,---,0.00,VWS V14.01,2013-11-30 09:00:00,
2013-11-30 04:04:00,27.0,19.2,30.34,SE,130,5.0,10.0,72,0.00,,---,0.00,VWS V14.01,2013-11-30 09:04:00,
2013-11-30 04:09:00,27.0,18.9,30.34,ESE,106,6.0,10.0,71,0.00,,---,0.00,VWS V14.01,2013-11-30 09:09:00,
2013-11-30 04:14:00,27.0,19.2,30.34,ESE,110,1.0,12.0,72,0.00,,---,0.00,VWS V14.01,2013-11-30 09:14:00,
2013-11-30 04:19:00,27.0,18.9,30.33,ENE,62,2.0,12.0,71,0.00,,---,0.00,VWS V14.01,2013-11-30 09:19:00,
2013-11-30 04:24:00,27.0,18.9,30.33,ESE,119,1.0,14.0,71,0.00,,---,0.00,VWS V14.01,2013-11-30 09:24:00,
2013-11-30 04:29:00,27.0,18.9,30.33,SE,137,11.0,14.0,71,0.00,,---,0.00,VWS V14.01,2013-11-30 09:29:00,
2013-11-30 04:30:00,27.2,19.1,30.33,SSW,193,4.0,14.0,71,0.00,,---,0.00,VWS V14.01,2013-11-30 09:30:00,
2013-11-30 04:34:00,27.2,19.4,30.33,South,169,6.0,8.0,72,0.00,,---,0.00,VWS V14.01,2013-11-30 09:34:00,
2013-11-30 04:39:00,27.2,19.4,30.33,ESE,109,1.0,8.0,72,0.00,,---,0.00,VWS V14.01,2013-11-30 09:39:00,
2013-11-30 04:44:00,27.2,19.4,30.33,SSE,148,1.0,8.0,72,0.00,,---,0.00,VWS V14.01,2013-11-30 09:44:00,
2013-11-30 04:49:00,27.3,19.5,30.32,SE,144,1.0,8.0,72,0.00,,---,0.00,VWS V14.01,2013-11-30 09:49:00,
2013-11-30 04:54:00,27.3,19.8,30.32,East,95,0.0,9.0,73,0.00,,---,0.00,VWS V14.01,2013-11-30 09:54:00,
2013-11-30 04:59:00,27.5,19.7,30.32,SSW,198,0.0,9.0,72,0.00,,---,0.00,VWS V14.01,2013-11-30 09:59:00,
2013-11-30 05:00:00,27.5,19.7,30.31,ENE,62,2.0,9.0,72,0.00,,---,0.00,VWS V14.01,2013-11-30 10:00:00,
2013-11-30 05:04:00,27.6,20.1,30.31,ESE,121,2.0,7.0,73,0.00,,---,0.00,VWS V14.01,2013-11-30 10:04:00,
2013-11-30 05:09:00,27.8,20.0,30.31,SSE,160,0.0,7.0,72,0.00,,---,0.00,VWS V14.01,2013-11-30 10:09:00,
2013-11-30 05:14:00,27.8,20.0,30.31,SE,124,2.0,7.0,72,0.00,,---,0.00,VWS V14.01,2013-11-30 10:14:00,
2013-11-30 05:19:00,27.8,20.0,30.30,SE,141,2.0,11.0,72,0.00,,---,0.00,VWS V14.01,2013-11-30 10:19:00,
2013-11-30 05:24:00,27.9,20.1,30.30,South,178,2.0,13.0,72,0.00,,---,0.00,VWS V14.01,2013-11-30 10:24:00,
2013-11-30 05:29:00,27.9,20.4,30.30,SW,226,0.0,13.0,73,0.00,,---,0.00,VWS V14.01,2013-11-30 10:29:00,
2013-11-30 05:30:00,27.9,20.4,30.28,ESE,119,3.0,13.0,73,0.00,,---,0.00,VWS V14.01,2013-11-30 10:30:00,
2013-11-30 05:34:00,27.9,20.4,30.28,SSE,167,3.0,5.0,73,0.00,,---,0.00,VWS V14.01,2013-11-30 10:34:00,
2013-11-30 05:39:00,27.9,20.4,30.28,North,352,1.0,6.0,73,0.00,,---,0.00,VWS V14.01,2013-11-30 10:39:00,
2013-11-30 05:44:00,27.9,20.4,30.28,South,169,2.0,8.0,73,0.00,,---,0.00,VWS V14.01,2013-11-30 10:44:00,
2013-11-30 05:49:00,28.1,20.9,30.27,SSE,167,0.0,8.0,74,0.00,,---,0.00,VWS V14.01,2013-11-30 10:49:00,
2013-11-30 05:54:00,28.1,20.9,30.27,SE,137,1.0,8.0,74,0.00,,---,0.00,VWS V14.01,2013-11-30 10:54:00,
2013-11-30 05:59:00,28.1,20.9,30.27,South,179,1.0,9.0,74,0.00,,---,0.00,VWS V14.01,2013-11-30 10:59:00,
2013-11-30 06:00:00,28.2,21.0,30.27,South,178,1.0,9.0,74,0.00,,---,0.00,VWS V14.01,2013-11-30 11:00:00,
2013-11-30 06:04:00,28.2,21.0,30.27,ESE,112,2.0,9.0,74,0.00,,---,0.00,VWS V14.01,2013-11-30 11:04:00,
2013-11-30 06:09:00,28.4,21.2,30.27,NE,55,1.0,11.0,74,0.00,,---,0.00,VWS V14.01,2013-11-30 11:09:00,
2013-11-30 06:14:00,28.4,21.2,30.27,ENE,76,2.0,11.0,74,0.00,,---,0.00,VWS V14.01,2013-11-30 11:14:00,
2013-11-30 06:19:00,28.4,21.5,30.26,SW,232,0.0,11.0,75,0.00,,---,0.00,VWS V14.01,2013-11-30 11:19:00,
2013-11-30 06:24:00,28.5,21.6,30.26,WSW,246,0.0,11.0,75,0.00,,---,0.00,VWS V14.01,2013-11-30 11:24:00,
2013-11-30 06:29:00,28.7,21.8,30.26,SE,138,1.0,11.0,75,0.00,,---,0.00,VWS V14.01,2013-11-30 11:29:00,
2013-11-30 06:30:00,28.7,21.8,30.24,SSE,162,0.0,11.0,75,0.00,,---,0.00,VWS V14.01,2013-11-30 11:30:00,
2013-11-30 06:34:00,28.8,21.9,30.24,SSE,152,2.0,7.0,75,0.00,,---,0.00,VWS V14.01,2013-11-30 11:34:00,
2013-11-30 06:39:00,29.0,22.1,30.24,SSE,157,1.0,7.0,75,0.00,,---,0.00,VWS V14.01,2013-11-30 11:39:00,
2013-11-30 06:44:00,29.3,22.4,30.24,South,181,1.0,7.0,75,0.00,,---,0.00,VWS V14.01,2013-11-30 11:44:00,
2013-11-30 06:49:00,29.3,22.4,30.24,WSW,254,3.0,7.0,75,0.00,,---,0.00,VWS V14.01,2013-11-30 11:49:00,
2013-11-30 06:54:00,29.4,22.5,30.24,SE,143,0.0,7.0,75,0.00,,---,0.00,VWS V14.01,2013-11-30 11:54:00,
2013-11-30 06:59:00,29.5,22.6,30.24,North,10,1.0,9.0,75,0.00,,---,0.00,VWS V14.01,2013-11-30 11:59:00,
2013-11-30 07:00:00,29.5,22.6,30.23,SSW,200,3.0,9.0,75,0.00,,---,0.00,VWS V14.01,2013-11-30 12:00:00,
2013-11-30 07:04:00,29.5,22.6,30.23,NNW,335,6.0,11.0,75,0.00,,---,0.00,VWS V14.01,2013-11-30 12:04:00,
2013-11-30 07:09:00,29.8,22.9,30.23,ESE,109,1.0,13.0,75,0.00,,---,0.00,VWS V14.01,2013-11-30 12:09:00,
2013-11-30 07:14:00,29.8,22.5,30.23,SSE,164,0.0,13.0,74,0.00,,---,0.00,VWS V14.01,2013-11-30 12:14:00,
2013-11-30 07:19:00,29.8,22.5,30.22,SW,220,5.0,13.0,74,0.00,,---,0.00,VWS V14.01,2013-11-30 12:19:00,
2013-11-30 07:24:00,30.0,22.7,30.22,SSE,154,0.0,13.0,74,0.00,,---,0.00,VWS V14.01,2013-11-30 12:24:00,
2013-11-30 07:29:00,30.0,23.0,30.22,South,178,6.0,13.0,75,0.00,,---,0.00,VWS V14.01,2013-11-30 12:29:00,
2013-11-30 07:30:00,30.0,23.0,30.22,SSE,165,2.0,13.0,75,0.00,,---,0.00,VWS V14.01,2013-11-30 12:30:00,
2013-11-30 07:34:00,30.1,23.1,30.22,East,96,3.0,7.0,75,0.00,,---,0.00,VWS V14.01,2013-11-30 12:34:00,
2013-11-30 07:39:00,30.1,23.1,30.22,SE,143,4.0,7.0,75,0.00,,---,0.00,VWS V14.01,2013-11-30 12:39:00,
2013-11-30 07:44:00,30.1,23.1,30.22,West,278,0.0,10.0,75,0.00,,---,0.00,VWS V14.01,2013-11-30 12:44:00,
2013-11-30 07:49:00,30.1,23.1,30.22,South,189,3.0,11.0,75,0.00,,---,0.00,VWS V14.01,2013-11-30 12:49:00,
2013-11-30 07:54:00,30.1,23.1,30.22,SW,220,1.0,11.0,75,0.00,,---,0.00,VWS V14.01,2013-11-30 12:54:00,
2013-11-30 07:59:00,30.1,23.1,30.22,South,175,2.0,11.0,75,0.00,,---,0.00,VWS V14.01,2013-11-30 12:59:00,
2013-11-30 08:00:00,30.1,23.1,30.21,SE,136,0.0,11.0,75,0.00,,---,0.00,VWS V14.01,2013-11-30 13:00:00,
2013-11-30 08:04:00,30.1,23.5,30.21,ESE,113,1.0,5.0,76,0.00,,---,0.00,VWS V14.01,2013-11-30 13:04:00,
2013-11-30 08:09:00,30.1,23.5,30.21,South,185,1.0,8.0,76,0.00,,---,0.00,VWS V14.01,2013-11-30 13:09:00,
2013-11-30 08:14:00,30.1,23.5,30.21,SW,223,1.0,8.0,76,0.00,,---,0.00,VWS V14.01,2013-11-30 13:14:00,
2013-11-30 08:19:00,30.1,23.5,30.21,South,186,0.0,8.0,76,0.00,,---,0.00,VWS V14.01,2013-11-30 13:19:00,
2013-11-30 08:24:00,30.1,23.5,30.21,ESE,110,0.0,8.0,76,0.00,,---,0.00,VWS V14.01,2013-11-30 13:24:00,
2013-11-30 08:29:00,30.1,23.5,30.21,ESE,109,2.0,8.0,76,0.00,,---,0.00,VWS V14.01,2013-11-30 13:29:00,
2013-11-30 08:30:00,30.1,23.5,30.21,SE,130,3.0,11.0,76,0.00,,---,0.00,VWS V14.01,2013-11-30 13:30:00,
2013-11-30 08:34:00,30.3,23.7,30.21,ESE,117,3.0,7.0,76,0.00,,---,0.00,VWS V14.01,2013-11-30 13:34:00,
2013-11-30 08:39:00,30.3,23.7,30.21,SE,134,1.0,7.0,76,0.00,,---,0.00,VWS V14.01,2013-11-30 13:39:00,
2013-11-30 08:44:00,30.3,23.7,30.21,SE,124,3.0,7.0,76,0.00,,---,0.00,VWS V14.01,2013-11-30 13:44:00,
2013-11-30 08:49:00,30.3,24.0,30.20,SSW,202,3.0,7.0,77,0.00,,---,0.00,VWS V14.01,2013-11-30 13:49:00,
2013-11-30 08:54:00,30.4,24.1,30.20,East,99,2.0,7.0,77,0.00,,---,0.00,VWS V14.01,2013-11-30 13:54:00,
2013-11-30 08:59:00,30.4,24.1,30.20,South,182,6.0,11.0,77,0.00,,---,0.00,VWS V14.01,2013-11-30 13:59:00,
2013-11-30 09:00:00,30.4,23.8,30.20,South,182,3.0,11.0,76,0.00,,---,0.00,VWS V14.01,2013-11-30 14:00:00,
2013-11-30 09:04:00,30.6,24.0,30.20,SSW,202,3.0,8.0,76,0.00,,---,0.00,VWS V14.01,2013-11-30 14:04:00,
2013-11-30 09:09:00,30.6,24.0,30.20,SSE,167,1.0,8.0,76,0.00,,---,0.00,VWS V14.01,2013-11-30 14:09:00,
2013-11-30 09:14:00,30.6,24.0,30.20,South,172,1.0,8.0,76,0.00,,---,0.00,VWS V14.01,2013-11-30 14:14:00,
2013-11-30 09:19:00,30.6,24.0,30.19,South,172,6.0,11.0,76,0.00,,---,0.00,VWS V14.01,2013-11-30 14:19:00,
2013-11-30 09:24:00,30.6,24.0,30.19,SSE,152,1.0,11.0,76,0.00,,---,0.00,VWS V14.01,2013-11-30 14:24:00,
2013-11-30 09:30:00,30.6,24.0,30.19,South,178,1.0,11.0,76,0.00,,---,0.00,VWS V14.01,2013-11-30 14:30:00,
2013-11-30 09:35:00,30.7,24.0,30.18,SW,217,0.0,6.0,76,0.00,,---,0.00,VWS V14.01,2013-11-30 14:35:00,
2013-11-30 09:40:00,30.7,24.0,30.18,ESE,113,6.0,10.0,76,0.00,,---,0.00,VWS V14.01,2013-11-30 14:40:00,
2013-11-30 09:45:00,30.9,24.2,30.17,SSE,168,3.0,10.0,76,0.00,,---,0.00,VWS V14.01,2013-11-30 14:45:00,
2013-11-30 09:50:00,31.0,24.3,30.17,ESE,104,2.0,12.0,76,0.00,,---,0.00,VWS V14.01,2013-11-30 14:50:00,
2013-11-30 09:55:00,31.0,24.3,30.17,South,184,1.0,12.0,76,0.00,,---,0.00,VWS V14.01,2013-11-30 14:55:00,
2013-11-30 10:00:00,31.2,24.5,30.17,South,178,4.0,12.0,76,0.00,,---,0.00,VWS V14.01,2013-11-30 15:00:00,
2013-11-30 10:05:00,31.3,24.3,30.17,SE,137,2.0,5.0,75,0.00,,---,0.00,VWS V14.01,2013-11-30 15:05:00,
2013-11-30 10:10:00,31.5,24.5,30.17,ESE,120,7.0,8.0,75,0.00,,---,0.00,VWS V14.01,2013-11-30 15:10:00,
2013-11-30 10:15:00,31.6,24.6,30.16,ESE,102,2.0,8.0,75,0.00,,---,0.00,VWS V14.01,2013-11-30 15:15:00,
2013-11-30 10:20:00,31.6,24.6,30.16,South,174,3.0,8.0,75,0.00,,---,0.00,VWS V14.01,2013-11-30 15:20:00,
2013-11-30 10:25:00,31.8,24.8,30.16,West,261,0.0,8.0,75,0.00,,---,0.00,VWS V14.01,2013-11-30 15:25:00,
2013-11-30 10:30:00,31.9,24.9,30.15,SSW,200,3.0,8.0,75,0.00,,---,0.00,VWS V14.01,2013-11-30 15:30:00,
2013-11-30 10:35:00,32.1,25.1,30.15,SE,127,1.0,5.0,75,0.00,,---,0.00,VWS V14.01,2013-11-30 15:35:00,
2013-11-30 10:40:00,32.2,25.2,30.15,SE,140,2.0,8.0,75,0.00,,---,0.00,VWS V14.01,2013-11-30 15:40:00,
2013-11-30 10:45:00,32.4,25.4,30.14,ESE,123,2.0,8.0,75,0.00,,---,0.00,VWS V14.01,2013-11-30 15:45:00,
2013-11-30 10:50:00,32.7,25.7,30.14,NW,305,4.0,8.0,75,0.00,,---,0.00,VWS V14.01,2013-11-30 15:50:00,
2013-11-30 10:55:00,32.9,25.5,30.14,SSE,162,0.0,8.0,74,0.00,,---,0.00,VWS V14.01,2013-11-30 15:55:00,
2013-11-30 11:00:00,33.1,25.7,30.12,South,184,5.0,8.0,74,0.00,,---,0.00,VWS V14.01,2013-11-30 16:00:00,
2013-11-30 11:05:00,33.2,25.8,30.12,SW,220,0.0,8.0,74,0.00,,---,0.00,VWS V14.01,2013-11-30 16:05:00,
2013-11-30 11:10:00,33.5,26.1,30.12,West,277,0.0,8.0,74,0.00,,---,0.00,VWS V14.01,2013-11-30 16:10:00,
2013-11-30 11:15:00,33.7,26.3,30.12,ENE,64,3.0,8.0,74,0.00,,---,0.00,VWS V14.01,2013-11-30 16:15:00,
2013-11-30 11:20:00,34.0,26.6,30.12,South,179,3.0,8.0,74,0.00,,---,0.00,VWS V14.01,2013-11-30 16:20:00,
2013-11-30 11:25:00,34.1,26.7,30.12,SE,143,6.0,8.0,74,0.00,,---,0.00,VWS V14.01,2013-11-30 16:25:00,
2013-11-30 11:30:00,34.4,27.0,30.12,SSW,202,0.0,8.0,74,0.00,,---,0.00,VWS V14.01,2013-11-30 16:30:00,
2013-11-30 11:35:00,34.7,27.3,30.12,SW,220,6.0,6.0,74,0.00,,---,0.00,VWS V14.01,2013-11-30 16:35:00,
2013-11-30 11:40:00,34.9,27.5,30.12,East,90,0.0,9.0,74,0.00,,---,0.00,VWS V14.01,2013-11-30 16:40:00,
2013-11-30 11:45:00,35.2,27.8,30.11,ESE,107,3.0,9.0,74,0.00,,---,0.00,VWS V14.01,2013-11-30 16:45:00,
2013-11-30 11:50:00,35.5,28.0,30.11,NNW,346,0.0,9.0,74,0.00,,---,0.00,VWS V14.01,2013-11-30 16:50:00,
2013-11-30 11:55:00,35.8,28.3,30.11,WSW,243,6.0,9.0,74,0.00,,---,0.00,VWS V14.01,2013-11-30 16:55:00,
2013-11-30 12:00:00,35.9,28.1,30.10,SSW,199,4.0,9.0,73,0.00,,---,0.00,VWS V14.01,2013-11-30 17:00:00,
2013-11-30 12:05:00,36.0,28.2,30.10,West,265,6.0,10.0,73,0.00,,---,0.00,VWS V14.01,2013-11-30 17:05:00,
2013-11-30 12:10:00,36.0,28.5,30.10,SW,233,5.0,10.0,74,0.00,,---,0.00,VWS V14.01,2013-11-30 17:10:00,
2013-11-30 12:15:00,36.0,28.5,30.10,SW,219,1.0,10.0,74,0.00,,---,0.00,VWS V14.01,2013-11-30 17:15:00,
2013-11-30 12:20:00,36.0,28.5,30.10,SSW,198,1.0,10.0,74,0.00,,---,0.00,VWS V14.01,2013-11-30 17:20:00,
2013-11-30 12:25:00,36.2,28.7,30.10,WSW,240,0.0,10.0,74,0.00,,---,0.00,VWS V14.01,2013-11-30 17:25:00,
2013-11-30 12:30:00,36.0,28.5,30.09,SSE,167,3.0,12.0,74,0.00,,---,0.00,VWS V14.01,2013-11-30 17:30:00,
2013-11-30 12:35:00,36.0,28.5,30.09,SE,138,2.0,10.0,74,0.00,,---,0.00,VWS V14.01,2013-11-30 17:35:00,
2013-11-30 12:40:00,36.0,28.9,30.09,SE,131,1.0,10.0,75,0.00,,---,0.00,VWS V14.01,2013-11-30 17:40:00,
2013-11-30 12:45:00,35.9,28.8,30.08,WNW,282,3.0,10.0,75,0.00,,---,0.00,VWS V14.01,2013-11-30 17:45:00,
2013-11-30 12:50:00,35.9,29.1,30.08,ESE,119,3.0,10.0,76,0.00,,---,0.00,VWS V14.01,2013-11-30 17:50:00,
2013-11-30 12:55:00,35.8,29.0,30.08,WSW,246,2.0,10.0,76,0.00,,---,0.00,VWS V14.01,2013-11-30 17:55:00,
2013-11-30 13:00:00,35.8,29.0,30.08,SW,216,0.0,10.0,76,0.00,,---,0.00,VWS V14.01,2013-11-30 18:00:00,
2013-11-30 13:05:00,35.8,29.0,30.08,ESE,121,10.0,10.0,76,0.00,,---,0.00,VWS V14.01,2013-11-30 18:05:00,
2013-11-30 13:10:00,35.8,29.3,30.08,SSE,164,1.0,10.0,77,0.00,,---,0.00,VWS V14.01,2013-11-30 18:10:00,
2013-11-30 13:15:00,35.8,29.3,30.07,SSE,165,5.0,11.0,77,0.00,,---,0.00,VWS V14.01,2013-11-30 18:15:00,
2013-11-30 13:20:00,35.9,29.4,30.07,SW,217,4.0,11.0,77,0.00,,---,0.00,VWS V14.01,2013-11-30 18:20:00,
2013-11-30 13:25:00,35.9,29.4,30.07,South,182,2.0,11.0,77,0.00,,---,0.00,VWS V14.01,2013-11-30 18:25:00,
2013-11-30 13:30:00,36.0,29.5,30.07,SE,131,2.0,13.0,77,0.00,,---,0.00,VWS V14.01,2013-11-30 18:30:00,
2013-11-30 13:35:00,36.0,29.5,30.07,SE,131,2.0,6.0,77,0.00,,---,0.00,VWS V14.01,2013-11-30 18:35:00,
2013-11-30 13:40:00,36.0,29.5,30.07,SSW,212,2.0,7.0,77,0.00,,---,0.00,VWS V14.01,2013-11-30 18:40:00,
2013-11-30 13:45:00,36.0,29.5,30.05,SSE,157,5.0,7.0,77,0.00,,---,0.00,VWS V14.01,2013-11-30 18:45:00,
2013-11-30 13:50:00,36.0,29.5,30.05,SSE,167,2.0,7.0,77,0.00,,---,0.00,VWS V14.01,2013-11-30 18:50:00,
2013-11-30 13:55:00,36.0,29.8,30.05,South,174,0.0,7.0,78,0.00,,---,0.00,VWS V14.01,2013-11-30 18:55:00,
2013-11-30 14:00:00,36.0,29.8,30.05,South,169,0.0,9.0,78,0.00,,---,0.00,VWS V14.01,2013-11-30 19:00:00,
2013-11-30 14:05:00,36.0,29.8,30.05,SSE,161,0.0,8.0,78,0.00,,---,0.00,VWS V14.01,2013-11-30 19:05:00,
2013-11-30 14:10:00,36.2,30.0,30.05,NE,38,0.0,8.0,78,0.00,,---,0.00,VWS V14.01,2013-11-30 19:10:00,
2013-11-30 14:15:00,36.2,30.0,30.04,SE,141,1.0,8.0,78,0.00,,---,0.00,VWS V14.01,2013-11-30 19:15:00,
2013-11-30 14:20:00,36.3,30.1,30.04,SSE,155,2.0,8.0,78,0.00,,---,0.00,VWS V14.01,2013-11-30 19:20:00,
2013-11-30 14:25:00,36.3,30.1,30.04,SSE,148,2.0,8.0,78,0.00,,---,0.00,VWS V14.01,2013-11-30 19:25:00,
2013-11-30 14:30:00,36.3,30.1,30.03,East,83,1.0,8.0,78,0.00,,---,0.00,VWS V14.01,2013-11-30 19:30:00,
2013-11-30 14:35:00,36.5,30.3,30.03,SW,217,0.0,5.0,78,0.00,,---,0.00,VWS V14.01,2013-11-30 19:35:00,
2013-11-30 14:40:00,36.5,30.3,30.03,ESE,104,5.0,5.0,78,0.00,,---,0.00,VWS V14.01,2013-11-30 19:40:00,
2013-11-30 14:45:00,36.5,30.3,30.03,SSW,199,0.0,5.0,78,0.00,,---,0.00,VWS V14.01,2013-11-30 19:45:00,
2013-11-30 14:50:00,36.5,30.3,30.03,SSW,202,1.0,5.0,78,0.00,,---,0.00,VWS V14.01,2013-11-30 19:50:00,
2013-11-30 14:55:00,36.5,30.3,30.03,SSW,203,6.0,7.0,78,0.00,,---,0.00,VWS V14.01,2013-11-30 19:55:00,
2013-11-30 15:00:00,36.5,30.3,30.02,SSE,168,2.0,7.0,78,0.00,,---,0.00,VWS V14.01,2013-11-30 20:00:00,
2013-11-30 15:05:00,36.5,30.3,30.02,SE,136,0.0,6.0,78,0.00,,---,0.00,VWS V14.01,2013-11-30 20:05:00,
2013-11-30 15:10:00,36.5,30.3,30.02,ESE,102,2.0,6.0,78,0.00,,---,0.00,VWS V14.01,2013-11-30 20:10:00,
2013-11-30 15:15:00,36.5,30.3,30.02,SSW,193,2.0,6.0,78,0.00,,---,0.00,VWS V14.01,2013-11-30 20:15:00,
2013-11-30 15:20:00,36.5,30.3,30.02,West,268,0.0,6.0,78,0.00,,---,0.00,VWS V14.01,2013-11-30 20:20:00,
2013-11-30 15:25:00,36.5,30.3,30.02,SE,144,2.0,8.0,78,0.00,,---,0.00,VWS V14.01,2013-11-30 20:25:00,
2013-11-30 15:30:00,36.5,30.3,30.01,East,90,2.0,8.0,78,0.00,,---,0.00,VWS V14.01,2013-11-30 20:30:00,
2013-11-30 15:31:00,36.5,30.3,30.01,East,90,2.0,8.0,78,0.00,,---,0.00,VWS V14.01,2013-11-30 20:31:00,
2013-11-30 15:36:00,36.5,30.3,30.01,ESE,116,2.0,4.0,78,0.00,,---,0.00,VWS V14.01,2013-11-30 20:36:00,
2013-11-30 15:41:00,36.5,30.3,30.01,SW,226,0.0,4.0,78,0.00,,---,0.00,VWS V14.01,2013-11-30 20:41:00,
2013-11-30 15:46:00,36.5,30.3,30.01,South,181,1.0,4.0,78,0.00,,---,0.00,VWS V14.01,2013-11-30 20:46:00,
2013-11-30 15:51:00,36.5,30.3,30.01,SE,137,0.0,4.0,78,0.00,,---,0.00,VWS V14.01,2013-11-30 20:51:00,
2013-11-30 15:56:00,36.6,30.4,30.01,SSW,205,0.0,5.0,78,0.00,,---,0.00,VWS V14.01,2013-11-30 20:56:00,
2013-11-30 16:00:00,36.6,30.4,30.01,SSE,161,0.0,5.0,78,0.00,,---,0.00,VWS V14.01,2013-11-30 21:00:00,
2013-11-30 16:01:00,36.6,30.4,30.01,SSE,161,0.0,5.0,78,0.00,,---,0.00,VWS V14.01,2013-11-30 21:01:00,
2013-11-30 16:06:00,36.6,30.4,30.01,SE,126,0.0,2.0,78,0.00,,---,0.00,VWS V14.01,2013-11-30 21:06:00,
2013-11-30 16:11:00,36.6,30.4,30.01,SE,126,0.0,2.0,78,0.00,,---,0.00,VWS V14.01,2013-11-30 21:11:00,
2013-11-30 16:16:00,36.6,30.4,30.01,SE,124,0.0,2.0,78,0.00,,---,0.00,VWS V14.01,2013-11-30 21:16:00,
2013-11-30 16:21:00,36.5,30.6,30.01,SE,124,0.0,2.0,79,0.00,,---,0.00,VWS V14.01,2013-11-30 21:21:00,
2013-11-30 16:26:00,36.3,30.4,30.01,SE,124,0.0,2.0,79,0.00,,---,0.00,VWS V14.01,2013-11-30 21:26:00,
2013-11-30 16:30:00,36.2,30.3,30.02,SE,124,0.0,2.0,79,0.00,,---,0.00,VWS V14.01,2013-11-30 21:30:00,
2013-11-30 16:31:00,36.2,30.3,30.02,SE,124,0.0,2.0,79,0.00,,---,0.00,VWS V14.01,2013-11-30 21:31:00,
2013-11-30 16:36:00,36.0,30.1,30.02,SE,124,0.0,0.0,79,0.00,,---,0.00,VWS V14.01,2013-11-30 21:36:00,
2013-11-30 16:41:00,35.9,30.0,30.02,SE,124,0.0,0.0,79,0.00,,---,0.00,VWS V14.01,2013-11-30 21:41:00,
2013-11-30 16:46:00,35.8,29.9,30.02,SE,124,0.0,0.0,79,0.00,,---,0.00,VWS V14.01,2013-11-30 21:46:00,
2013-11-30 16:51:00,35.8,29.9,30.02,SE,124,0.0,0.0,79,0.00,,---,0.00,VWS V14.01,2013-11-30 21:51:00,
2013-11-30 16:56:00,35.6,30.4,30.02,SE,124,0.0,0.0,81,0.00,,---,0.00,VWS V14.01,2013-11-30 21:56:00,
2013-11-30 17:00:00,35.5,30.0,30.02,SE,124,0.0,0.0,80,0.00,,---,0.00,VWS V14.01,2013-11-30 22:00:00,
2013-11-30 17:01:00,35.5,30.0,30.02,SE,124,0.0,0.0,80,0.00,,---,0.00,VWS V14.01,2013-11-30 22:01:00,
2013-11-30 17:06:00,35.5,30.3,30.02,SE,124,0.0,0.0,81,0.00,,---,0.00,VWS V14.01,2013-11-30 22:06:00,
2013-11-30 17:11:00,35.3,30.1,30.02,SE,124,0.0,0.0,81,0.00,,---,0.00,VWS V14.01,2013-11-30 22:11:00,
2013-11-30 17:16:00,35.2,30.0,30.02,SE,124,0.0,0.0,81,0.00,,---,0.00,VWS V14.01,2013-11-30 22:16:00,
2013-11-30 17:21:00,35.2,30.0,30.02,SE,124,0.0,0.0,81,0.00,,---,0.00,VWS V14.01,2013-11-30 22:21:00,
2013-11-30 17:26:00,35.2,30.0,30.02,SE,124,0.0,0.0,81,0.00,,---,0.00,VWS V14.01,2013-11-30 22:26:00,
2013-11-30 17:30:00,35.2,30.0,30.03,SE,124,0.0,0.0,81,0.00,,---,0.00,VWS V14.01,2013-11-30 22:30:00,
2013-11-30 17:31:00,35.2,30.0,30.03,SE,124,0.0,0.0,81,0.00,,---,0.00,VWS V14.01,2013-11-30 22:31:00,
2013-11-30 17:36:00,35.2,30.3,30.03,SE,124,0.0,1.0,82,0.00,,---,0.00,VWS V14.01,2013-11-30 22:36:00,
2013-11-30 17:41:00,35.0,30.1,30.03,SE,124,0.0,1.0,82,0.00,,---,0.00,VWS V14.01,2013-11-30 22:41:00,
2013-11-30 17:46:00,34.9,30.3,30.02,SE,124,0.0,1.0,83,0.00,,---,0.00,VWS V14.01,2013-11-30 22:46:00,
2013-11-30 17:51:00,34.9,30.3,30.02,SE,124,0.0,1.0,83,0.00,,---,0.00,VWS V14.01,2013-11-30 22:51:00,
2013-11-30 17:56:00,35.0,30.4,30.02,ESE,120,1.0,2.0,83,0.00,,---,0.00,VWS V14.01,2013-11-30 22:56:00,
2013-11-30 18:00:00,35.2,30.3,30.02,ESE,113,1.0,3.0,82,0.00,,---,0.00,VWS V14.01,2013-11-30 23:00:00,
2013-11-30 18:01:00,35.2,30.3,30.02,ESE,113,1.0,1.0,82,0.00,,---,0.00,VWS V14.01,2013-11-30 23:01:00,
2013-11-30 18:06:00,35.2,30.3,30.02,ESE,113,1.0,2.0,82,0.00,,---,0.00,VWS V14.01,2013-11-30 23:06:00,
2013-11-30 18:11:00,35.3,30.4,30.02,ESE,114,0.0,2.0,82,0.00,,---,0.00,VWS V14.01,2013-11-30 23:11:00,
2013-11-30 18:16:00,35.3,30.1,30.02,SE,124,0.0,3.0,81,0.00,,---,0.00,VWS V14.01,2013-11-30 23:16:00,
2013-11-30 18:21:00,35.3,30.1,30.02,ESE,120,0.0,3.0,81,0.00,,---,0.00,VWS V14.01,2013-11-30 23:21:00,
2013-11-30 18:26:00,35.5,30.0,30.02,SE,133,0.0,3.0,80,0.00,,---,0.00,VWS V14.01,2013-11-30 23:26:00,
2013-11-30 18:30:00,35.5,30.3,30.02,SE,136,0.0,3.0,81,0.00,,---,0.00,VWS V14.01,2013-11-30 23:30:00,
2013-11-30 18:31:00,35.5,30.3,30.02,SE,136,0.0,0.0,81,0.00,,---,0.00,VWS V14.01,2013-11-30 23:31:00,
2013-11-30 18:36:00,35.3,30.1,30.02,ESE,116,1.0,2.0,81,0.00,,---,0.00,VWS V14.01,2013-11-30 23:36:00,
2013-11-30 18:41:00,35.2,30.0,30.02,ESE,116,2.0,3.0,81,0.00,,---,0.00,VWS V14.01,2013-11-30 23:41:00,
2013-11-30 18:46:00,35.0,29.8,30.03,ESE,114,0.0,5.0,81,0.00,,---,0.00,VWS V14.01,2013-11-30 23:46:00,
2013-11-30 18:51:00,35.0,29.8,30.03,ESE,114,0.0,5.0,81,0.00,,---,0.00,VWS V14.01,2013-11-30 23:51:00,
2013-11-30 18:56:00,35.0,30.1,30.03,ESE,114,0.0,5.0,82,0.00,,---,0.00,VWS V14.01,2013-11-30 23:56:00,
2013-11-30 19:00:00,34.9,30.0,30.03,ESE,114,0.0,5.0,82,0.00,,---,0.00,VWS V14.01,2013-12-01 00:00:00,
2013-11-30 19:01:00,34.9,30.0,30.03,ESE,114,0.0,0.0,82,0.00,,---,0.00,VWS V14.01,2013-12-01 00:01:00,
2013-11-30 19:06:00,34.7,30.1,30.03,ESE,114,0.0,1.0,83,0.00,,---,0.00,VWS V14.01,2013-12-01 00:06:00,
2013-11-30 19:11:00,34.6,30.0,30.03,ESE,114,0.0,1.0,83,0.00,,---,0.00,VWS V14.01,2013-12-01 00:11:00,
2013-11-30 19:16:00,34.6,30.0,30.03,ESE,114,0.0,2.0,83,0.00,,---,0.00,VWS V14.01,2013-12-01 00:16:00,
2013-11-30 19:21:00,34.6,30.0,30.03,ESE,114,0.0,2.0,83,0.00,,---,0.00,VWS V14.01,2013-12-01 00:21:00,
2013-11-30 19:26:00,34.4,29.8,30.03,ESE,114,0.0,2.0,83,0.00,,---,0.00,VWS V14.01,2013-12-01 00:26:00,
2013-11-30 19:30:00,34.4,29.8,30.03,ESE,114,0.0,2.0,83,0.00,,---,0.00,VWS V14.01,2013-12-01 00:30:00,
2013-11-30 19:31:00,34.4,30.1,30.03,ESE,114,0.0,0.0,84,0.00,,---,0.00,VWS V14.01,2013-12-01 00:31:00,
2013-11-30 19:36:00,34.4,30.1,30.03,ESE,114,0.0,0.0,84,0.00,,---,0.00,VWS V14.01,2013-12-01 00:36:00,
2013-11-30 19:41:00,34.4,30.1,30.03,ESE,114,0.0,0.0,84,0.00,,---,0.00,VWS V14.01,2013-12-01 00:41:00,
2013-11-30 19:46:00,34.3,30.0,30.03,ESE,114,0.0,0.0,84,0.00,,---,0.00,VWS V14.01,2013-12-01 00:46:00,
2013-11-30 19:51:00,34.3,30.0,30.03,ESE,114,0.0,0.0,84,0.00,,---,0.00,VWS V14.01,2013-12-01 00:51:00,
2013-11-30 19:56:00,34.3,30.0,30.03,ESE,114,0.0,0.0,84,0.00,,---,0.00,VWS V14.01,2013-12-01 00:56:00,
2013-11-30 20:00:00,34.1,29.8,30.03,ESE,114,0.0,0.0,84,0.00,,---,0.00,VWS V14.01,2013-12-01 01:00:00,
2013-11-30 20:01:00,34.1,29.8,30.03,ESE,114,0.0,0.0,84,0.00,,---,0.00,VWS V14.01,2013-12-01 01:01:00,
2013-11-30 20:06:00,34.1,29.8,30.03,ESE,114,0.0,0.0,84,0.00,,---,0.00,VWS V14.01,2013-12-01 01:06:00,
2013-11-30 20:11:00,34.1,30.1,30.03,ESE,114,0.0,0.0,85,0.00,,---,0.00,VWS V14.01,2013-12-01 01:11:00,
2013-11-30 20:16:00,34.1,30.1,30.04,ESE,114,0.0,0.0,85,0.00,,---,0.00,VWS V14.01,2013-12-01 01:16:00,
2013-11-30 20:21:00,34.0,30.3,30.04,ESE,114,0.0,0.0,86,0.00,,---,0.00,VWS V14.01,2013-12-01 01:21:00,
2013-11-30 20:26:00,34.0,30.3,30.04,ESE,114,0.0,0.0,86,0.00,,---,0.00,VWS V14.01,2013-12-01 01:26:00,
2013-11-30 20:30:00,33.8,30.4,30.03,ESE,112,2.0,3.0,87,0.00,,---,0.00,VWS V14.01,2013-12-01 01:30:00,
2013-11-30 20:31:00,33.8,30.4,30.03,ESE,112,1.0,2.0,87,0.00,,---,0.00,VWS V14.01,2013-12-01 01:31:00,
2013-11-30 20:36:00,33.8,30.4,30.03,ESE,112,0.0,2.0,87,0.00,,---,0.00,VWS V14.01,2013-12-01 01:36:00,
2013-11-30 20:41:00,33.7,30.5,30.03,ESE,112,0.0,2.0,88,0.00,,---,0.00,VWS V14.01,2013-12-01 01:41:00,
2013-11-30 20:43:00,33.7,30.5,30.03,ESE,112,0.0,2.0,88,0.00,,---,0.00,VWS V14.01,2013-12-01 01:43:00,
2013-11-30 20:48:00,33.7,30.5,30.03,ESE,112,0.0,2.0,88,0.00,,---,0.00,VWS V14.01,2013-12-01 01:48:00,
2013-11-30 20:53:00,33.7,30.8,30.03,ESE,112,0.0,2.0,89,0.00,,---,0.00,VWS V14.01,2013-12-01 01:53:00,
2013-11-30 20:58:00,33.7,30.8,30.03,ESE,112,0.0,2.0,89,0.00,,---,0.00,VWS V14.01,2013-12-01 01:58:00,
2013-11-30 21:00:00,33.7,30.8,30.03,ESE,112,0.0,2.0,89,0.00,,---,0.00,VWS V14.01,2013-12-01 02:00:00,
2013-11-30 21:03:00,33.7,30.5,30.03,North,0,2.0,2.0,88,0.00,,---,0.00,VWS V14.01,2013-12-01 02:03:00,
2013-11-30 21:08:00,34.3,31.7,30.03,North,0,1.0,5.0,90,0.00,,---,0.00,VWS V14.01,2013-12-01 02:08:00,
2013-11-30 21:13:00,34.7,32.1,30.03,NNW,346,2.0,5.0,90,0.00,,---,0.00,VWS V14.01,2013-12-01 02:13:00,
2013-11-30 21:18:00,35.0,32.4,30.03,NNW,346,4.0,5.0,90,0.00,,---,0.00,VWS V14.01,2013-12-01 02:18:00,
2013-11-30 21:23:00,35.2,32.6,30.03,NNW,346,2.0,5.0,90,0.00,,---,0.00,VWS V14.01,2013-12-01 02:23:00,
2013-11-30 21:28:00,35.2,32.6,30.03,NNW,346,2.0,5.0,90,0.00,,---,0.00,VWS V14.01,2013-12-01 02:28:00,
2013-11-30 21:30:00,35.2,32.6,30.03,NNW,346,2.0,5.0,90,0.00,,---,0.00,VWS V14.01,2013-12-01 02:30:00,
2013-11-30 21:33:00,35.3,32.7,30.03,NNW,346,1.0,3.0,90,0.00,,---,0.00,VWS V14.01,2013-12-01 02:33:00,
2013-11-30 21:38:00,35.2,32.6,30.03,NNW,346,2.0,5.0,90,0.00,,---,0.00,VWS V14.01,2013-12-01 02:38:00,
2013-11-30 21:43:00,35.2,32.6,30.03,NNW,346,0.0,5.0,90,0.00,,---,0.00,VWS V14.01,2013-12-01 02:43:00,
2013-11-30 21:48:00,35.3,32.7,30.03,NNW,346,1.0,5.0,90,0.00,,---,0.00,VWS V14.01,2013-12-01 02:48:00,
2013-11-30 21:53:00,35.3,32.7,30.03,NNW,346,1.0,5.0,90,0.00,,---,0.00,VWS V14.01,2013-12-01 02:53:00,
2013-11-30 21:58:00,35.2,32.3,30.03,NNW,346,1.0,5.0,89,0.00,,---,0.00,VWS V14.01,2013-12-01 02:58:00,
2013-11-30 22:00:00,35.3,32.4,30.03,NNW,346,1.0,5.0,89,0.00,,---,0.00,VWS V14.01,2013-12-01 03:00:00,
2013-11-30 22:03:00,35.3,32.4,30.03,NNW,346,1.0,2.0,89,0.01,,---,0.01,VWS V14.01,2013-12-01 03:03:00,
2013-11-30 22:08:00,35.2,32.3,30.03,NNW,346,3.0,3.0,89,0.01,,---,0.01,VWS V14.01,2013-12-01 03:08:00,
2013-11-30 22:13:00,35.2,32.6,30.03,North,0,5.0,5.0,90,0.01,,---,0.01,VWS V14.01,2013-12-01 03:13:00,
2013-11-30 22:18:00,35.0,32.4,30.03,North,359,3.0,6.0,90,0.01,,---,0.01,VWS V14.01,2013-12-01 03:18:00,
2013-11-30 22:23:00,34.9,32.3,30.03,North,0,5.0,6.0,90,0.01,,---,0.01,VWS V14.01,2013-12-01 03:23:00,
2013-11-30 22:28:00,34.9,32.5,30.03,North,0,2.0,6.0,91,0.01,,---,0.01,VWS V14.01,2013-12-01 03:28:00,
2013-11-30 22:30:00,34.7,32.3,30.03,North,0,1.0,6.0,91,0.01,,---,0.01,VWS V14.01,2013-12-01 03:30:00,
2013-11-30 22:33:00,34.7,32.3,30.03,North,0,3.0,3.0,91,0.01,,---,0.01,VWS V14.01,2013-12-01 03:33:00,
2013-11-30 22:38:00,34.6,32.2,30.03,North,0,2.0,5.0,91,0.01,,---,0.01,VWS V14.01,2013-12-01 03:38:00,
2013-11-30 22:43:00,34.6,32.2,30.03,North,0,3.0,5.0,91,0.01,,---,0.01,VWS V14.01,2013-12-01 03:43:00,
2013-11-30 22:48:00,34.6,32.2,30.03,North,0,0.0,5.0,91,0.01,,---,0.01,VWS V14.01,2013-12-01 03:48:00,
2013-11-30 22:53:00,34.6,32.2,30.03,North,0,1.0,5.0,91,0.01,,---,0.01,VWS V14.01,2013-12-01 03:53:00,
2013-11-30 22:58:00,34.4,32.0,30.03,North,0,1.0,5.0,91,0.01,,---,0.01,VWS V14.01,2013-12-01 03:58:00,
2013-11-30 23:00:00,34.4,32.0,30.03,North,0,0.0,5.0,91,0.01,,---,0.01,VWS V14.01,2013-12-01 04:00:00,
2013-11-30 23:03:00,34.3,32.0,30.03,North,0,0.0,2.0,91,0.01,,---,0.01,VWS V14.01,2013-12-01 04:03:00,
2013-11-30 23:08:00,34.3,32.0,30.03,North,0,2.0,2.0,91,0.01,,---,0.01,VWS V14.01,2013-12-01 04:08:00,
2013-11-30 23:13:00,34.3,32.2,30.03,North,0,1.0,3.0,92,0.01,,---,0.01,VWS V14.01,2013-12-01 04:13:00,
2013-11-30 23:18:00,34.3,32.2,30.05,North,0,2.0,3.0,92,0.01,,---,0.01,VWS V14.01,2013-12-01 04:18:00,
2013-11-30 23:23:00,34.1,32.0,30.05,North,0,1.0,3.0,92,0.01,,---,0.01,VWS V14.01,2013-12-01 04:23:00,
2013-11-30 23:28:00,34.1,32.0,30.05,North,0,1.0,3.0,92,0.01,,---,0.01,VWS V14.01,2013-12-01 04:28:00,
2013-11-30 23:30:00,34.1,32.0,30.05,North,0,0.0,3.0,92,0.01,,---,0.01,VWS V14.01,2013-12-01 04:30:00,
2013-11-30 23:33:00,34.1,32.0,30.05,North,0,0.0,2.0,92,0.00,,---,0.01,VWS V14.01,2013-12-01 04:33:00,
2013-11-30 23:39:00,34.1,32.0,30.05,North,0,1.0,3.0,92,0.00,,---,0.01,VWS V14.01,2013-12-01 04:39:00,
2013-11-30 23:44:00,34.0,31.9,30.05,North,0,0.0,3.0,92,0.00,,---,0.01,VWS V14.01,2013-12-01 04:44:00,
2013-11-30 23:49:00,34.0,31.9,30.05,North,0,0.0,3.0,92,0.00,,---,0.01,VWS V14.01,2013-12-01 04:49:00,
2013-11-30 23:54:00,34.0,31.9,30.05,North,0,0.0,3.0,92,0.00,,---,0.01,VWS V14.01,2013-12-01 04:54:00,
2013-11-30 23:59:00,33.8,31.7,30.05,North,0,1.0,3.0,92,0.00,,---,0.01,VWS V14.01,2013-12-01 04:59:00,